Regional Weather Roundup
Issued by NWS Albany, NY

Current Version | Previous Version | Text Only | Print | Product List | Glossary On
Versions: 1 2 3 4 5 6 7 8 9 10 11 12 13 14 15 16 17 18 19 20 21 22 23 24 25 26 27 28 29 30 31 32 33 34 35 36 37 38 39 40 41 42 43 44 45 46 47 48 49 50
000
ASUS41 KALY 210610
RWRALY

NEW YORK STATE HOURLY WEATHER ROUNDUP
NATIONAL WEATHER SERVICE ALBANY NY
200 AM EDT SUN SEP 21 2014

NOTE: "FAIR" INDICATES FEW OR NO CLOUDS BELOW 12,000 FEET WITH NO
SIGNIFICANT WEATHER AND/OR NO OBSTRUCTIONS TO VISIBILITY.

NYZ032-033-038>043-046>054-057>066-NYZ062>081-210700-
EAST


CITY           SKY/WX    TMP DP  RH WIND       PRES   REMARKS
ALBANY         CLEAR     64  58  80 S16       29.97F
GLENS FALLS    PTCLDY    59  54  83 CALM      29.97F
POUGHKEEPSIE   CLOUDY    61  58  90 CALM      30.02F
NEWBURGH       MOCLDY    61  59  94 W6        30.04F
MONTGOMERY     CLOUDY    56  54  93 CALM      30.03F
WHITE PLAINS   RAIN      65  63  93 CALM      30.02F FOG
ISLIP          HVY RAIN  67  65  93 E7        29.99F FOG
NEW YORK CITY  LGT RAIN  68  64  87 CALM      30.01F
CENTRAL PARK   CLOUDY    68  65  90 CALM      30.04F FOG
$$

NYZ005>009-017-018-044>046-055-056-210700-
CENTRAL


CITY           SKY/WX    TMP DP  RH WIND       PRES   REMARKS
FULTON         PTCLDY    67  56  67 S12G20    29.84F
SYRACUSE       PTCLDY    69  57  65 S21G32    29.85F
ROME           MOCLDY    66  57  72 S7        29.92F
ELMIRA         CLEAR     65  57  75 W6        29.92F
BINGHAMTON     MOCLDY    62  55  77 S14G22    29.98F
MONTICELLO     CLOUDY    57  55  94 SW3       30.05F
$$

NYZ026>034-041>043-210700-
NORTH


CITY           SKY/WX    TMP DP  RH WIND       PRES   REMARKS
WATERTOWN      MOCLDY    70  55  59 S15G29    29.78F
FORT DRUM      NOT AVBL
MASSENA        CLOUDY    69  58  67 S16G24    29.77F
SARANAC LAKE   PTCLDY    62  55  77 SW14G24   29.88F
PLATTSBURGH    PTCLDY    63  57  81 S20       29.85F
$$

NYZ001>004-010>016-019>021-210700-
WEST


CITY           SKY/WX    TMP DP  RH WIND       PRES   REMARKS
NIAGARA FALLS  MOCLDY    72  61  68 SW18G30   29.76S
BUFFALO        CLOUDY    71  60  68 S15G28    29.77F
DUNKIRK        MOCLDY    70  61  73 S18G26    29.79F
JAMESTOWN      MOCLDY    64  61  88 S9G18     29.85F
WELLSVILLE     PTCLDY    63  55  75 S16G23    29.91F
ROCHESTER      PTCLDY    71  59  65 S13G25    29.78F
PENN YAN       CLEAR     66  57  72 VRB7      29.88F
$$

             KEY
       WCI = WIND CHILL INDEX
       VSB = VISIBILITY
       HX  = HEAT INDEX
$$



USA.gov is the U.S. government's official web portal to all federal, state and local government web resources and services.